FW0327 Weather Reports


time (UTC)temp
C
wind
direction
speed
KPH
gust
KPH
rain 1hr
cm
rain 24hr
cm
rain mn
cm
humidity
%
barometer
mb
20260507131019 13 59 1.6 8.0 0.00 0.10 0.03 70 1016.6
20260507130020 14 310 1.6 8.0 0.00 0.10 0.03 66 1016.6
20260507125040 15 304 1.6 3.2 0.00 0.10 0.03 66 1016.6
20260507124021 15 308 1.6 4.8 0.00 0.10 0.03 66 1016.6
20260507123021 15 19 1.6 8.0 0.00 0.10 0.03 66 1016.6
20260507122021 14 288 3.2 8.0 0.00 0.10 0.03 67 1016.4
20260507121022 13 354 0.0 3.2 0.00 0.10 0.03 71 1016.4
20260507120022 13 305 1.6 8.0 0.00 0.10 0.03 70 1016.5
20260507115042 13 331 1.6 8.0 0.00 0.10 0.03 72 1016.4
20260507114043 13 316 0.0 3.2 0.00 0.10 0.03 72 1016.3
20260507113024 12 357 1.6 4.8 0.00 0.10 0.03 73 1016.3
20260507112024 12 39 1.6 8.0 0.00 0.10 0.03 73 1016.3
20260507111044 12 321 0.0 1.6 0.00 0.10 0.03 74 1016.3
20260507110024 12 338 1.6 8.0 0.00 0.10 0.03 74 1016.2
20260507105027 12 333 0.0 3.2 0.00 0.10 0.03 75 1016.2
20260507104026 11 357 0.0 3.2 0.00 0.10 0.03 75 1016.2
20260507103026 11 7 0.0 4.8 0.00 0.10 0.03 75 1016.2
20260507102022 12 10 1.6 3.2 0.00 0.10 0.03 74 1016.1
20260507101023 12 306 0.0 4.8 0.00 0.10 0.03 72 1016.2
20260507100023 12 313 1.6 3.2 0.00 0.10 0.03 73 1016.0
20260507095024 12 327 1.6 8.0 0.00 0.10 0.03 73 1015.9
20260507094104 12 313 1.6 8.0 0.00 0.10 0.03 72 1015.8
20260507093024 12 308 3.2 9.7 0.00 0.10 0.03 74 1015.7
20260507092025 11 354 0.0 3.2 0.00 0.10 0.03 78 1015.8
20260507091025 10 342 0.0 3.2 0.00 0.10 0.03 79 1015.6
20260507090026 10 64 1.6 4.8 0.00 0.10 0.03 78 1015.5
20260507085026 11 307 1.6 4.8 0.00 0.10 0.03 79 1015.4
20260507084027 10 339 0.0 4.8 0.00 0.10 0.03 82 1015.4
20260507083027 10 301 0.0 4.8 0.00 0.10 0.03 81 1015.3
20260507082027 10 301 0.0 8.0 0.00 0.10 0.03 82 1015.3
20260507081028 10 357 1.6 3.2 0.00 0.10 0.03 84 1015.1
20260507080028 10 323 0.0 4.8 0.00 0.10 0.03 86 1015.0
20260507075029 10 284 1.6 4.8 0.00 0.10 0.03 85 1014.8
20260507074029 10 289 3.2 8.0 0.00 0.10 0.03 86 1014.8
20260507073049 10 293 1.6 3.2 0.00 0.10 0.03 88 1014.7
20260507072050 9 280 1.6 3.2 0.00 0.10 0.03 89 1014.5
20260507071030 9 283 1.6 3.2 0.00 0.10 0.03 90 1014.5
20260507070030 9 273 1.6 4.8 0.00 0.10 0.03 91 1014.5
20260507065031 8 282 1.6 3.2 0.00 0.10 0.03 91 1014.5
20260507064031 8 294 1.6 3.2 0.00 0.10 0.03 92 1014.4
20260507063032 8 276 1.6 3.2 0.00 0.10 0.03 92 1014.3
20260507062032 8 295 1.6 3.2 0.00 0.10 0.03 93 1014.1
20260507061033 8 291 0.0 3.2 0.00 0.10 0.03 93 1014.2
20260507060033 8 289 0.0 1.6 0.00 0.10 0.03 93 1014.0
20260507055033 8 291 0.0 1.6 0.00 0.10 0.03 93 1013.8
20260507054054 8 280 0.0 1.6 0.00 0.10 0.03 93 1013.7
20260507053034 8 0.0 0.0 0.00 0.10 0.03 93 1013.6
20260507052035 8 0.0 1.6 0.00 0.10 0.03 94 1013.5
20260507051035 8 0.0 0.0 0.00 0.10 0.03 93 1013.3
20260507050036 8 0.0 0.0 0.00 0.10 0.03 93 1013.2
20260507045036 8 300 0.0 1.6 0.00 0.10 0.03 93 1013.0
20260507044036 8 291 0.0 1.6 0.00 0.10 0.03 93 1013.0
20260507043117 8 283 0.0 1.6 0.00 0.10 0.03 93 1012.8
20260507042037 8 279 0.0 3.2 0.00 0.10 0.03 93 1012.8
20260507041037 8 287 0.0 1.6 0.00 0.10 0.03 93 1012.6
20260507040038 8 282 0.0 3.2 0.00 0.10 0.03 93 1012.7
20260507035038 8 0.0 0.0 0.00 0.10 0.03 93 1012.7
20260507034039 8 290 0.0 1.6 0.00 0.10 0.03 93 1012.6
20260507033039 8 286 0.0 3.2 0.00 0.10 0.03 93 1012.7
20260507032040 8 289 0.0 1.6 0.00 0.10 0.03 92 1012.6
20260507031040 8 284 1.6 4.8 0.00 0.10 0.03 92 1012.5
20260507030041 8 303 0.0 3.2 0.00 0.10 0.03 93 1012.5
20260507025101 8 290 0.0 1.6 0.00 0.10 0.03 92 1012.5
20260507024041 8 278 0.0 3.2 0.00 0.10 0.03 92 1012.5
20260507023042 8 292 0.0 3.2 0.00 0.10 0.03 92 1012.3
20260507022042 8 301 0.0 3.2 0.00 0.10 0.03 93 1012.3
20260507021043 8 0.0 1.6 0.00 0.10 0.03 94 1012.2
20260507015043 8 288 0.0 3.2 0.00 0.10 0.03 95 1012.0
20260507014044 8 275 0.0 1.6 0.00 0.10 0.03 95 1012.0
20260507013104 8 0.0 0.0 0.00 0.10 0.03 94 1011.8
20260507012017 8 0.0 0.0 0.00 0.10 0.03 94 1011.8
20260507011037 8 0.0 0.0 0.00 0.10 0.03 94 1011.7
20260507010018 8 0.0 0.0 0.00 0.10 0.03 93 1011.7
20260507005018 8 0.0 0.0 0.00 0.10 0.03 93 1011.7
20260507004018 8 0.0 0.0 0.00 0.10 0.03 93 1011.7
20260507003019 8 291 0.0 3.2 0.00 0.10 0.03 93 1011.7
20260507002039 8 0.0 0.0 0.00 0.10 0.03 93 1011.6
20260507001020 8 0.0 0.0 0.00 0.10 0.03 92 1011.6
20260507000040 8 299 0.0 1.6 0.00 0.10 0.03 92 1011.6
20260506235021 8 0.0 1.6 0.00 0.10 0.03 92 1011.6
20260506234021 8 303 0.0 3.2 0.00 0.10 0.03 92 1011.5
20260506233021 8 304 0.0 3.2 0.03 0.10 0.03 92 1011.5
20260506232021 9 284 0.0 4.8 0.03 0.10 0.03 92 1011.4
20260506231022 9 307 0.0 3.2 0.03 0.10 0.03 93 1011.4
20260506230023 9 325 0.0 4.8 0.03 0.10 0.03 93 1011.3
20260506225023 9 300 0.0 4.8 0.03 0.10 0.03 94 1011.3
20260506224023 9 0.0 0.0 0.03 0.10 0.03 94 1011.2
20260506223023 9 331 0.0 1.6 0.00 0.08 0.00 94 1011.0
20260506222024 9 310 0.0 1.6 0.03 0.08 0.00 94 1010.9
20260506221045 9 350 0.0 1.6 0.03 0.08 0.00 94 1010.8
20260506220025 9 320 0.0 1.6 0.03 0.08 0.00 94 1010.8
20260506215025 10 315 1.6 3.2 0.03 0.08 0.08 94 1010.7
20260506214025 10 309 0.0 3.2 0.03 0.08 0.08 94 1010.7
20260506213026 10 317 0.0 1.6 0.03 0.08 0.08 93 1010.6
20260506212026 10 0.0 1.6 0.00 0.05 0.05 92 1010.3
20260506211027 10 358 0.0 1.6 0.00 0.05 0.05 91 1010.3
20260506210028 10 0.0 0.0 0.00 0.05 0.05 90 1010.2
20260506205028 11 322 0.0 1.6 0.00 0.08 0.05 90 1010.1
20260506204028 11 0.0 0.0 0.00 0.08 0.05 90 1010.1
20260506203028 11 297 0.0 1.6 0.00 0.08 0.05 90 1010.1
20260506202049 10 0.0 0.0 0.00 0.10 0.05 90 1009.9
20260506201029 11 0.0 0.0 0.00 0.10 0.05 89 1009.8
20260506200110 11 0.0 1.6 0.00 0.10 0.05 89 1009.7
20260506195030 11 312 0.0 1.6 0.00 0.10 0.05 89 1009.8
20260506194030 11 303 0.0 3.2 0.00 0.10 0.05 90 1009.7
20260506193051 11 0.0 0.0 0.00 0.13 0.05 90 1009.5
20260506192032 11 0.0 0.0 0.00 0.15 0.05 90 1009.5
20260506191032 11 16 0.0 1.6 0.00 0.18 0.05 89 1009.3
20260506190033 11 336 0.0 3.2 0.00 0.18 0.05 89 1009.1
20260506185033 11 332 0.0 1.6 0.00 0.18 0.05 89 1009.1
20260506184033 11 0.0 1.6 0.00 0.20 0.05 89 1008.8
20260506183034 11 314 0.0 4.8 0.00 0.20 0.05 88 1008.6
20260506182034 11 312 1.6 4.8 0.00 0.20 0.05 88 1008.5
20260506181034 12 314 0.0 3.2 0.00 0.20 0.05 86 1008.3
20260506180035 12 307 0.0 3.2 0.00 0.20 0.05 86 1008.3
20260506175035 12 307 0.0 3.2 0.00 0.20 0.05 87 1008.2
20260506174035 12 330 1.6 8.0 0.00 0.20 0.05 88 1008.1
20260506173020 12 310 0.0 3.2 0.00 0.20 0.05 91 1008.0
20260506172036 12 357 0.0 1.6 0.00 0.20 0.05 91 1008.0
20260506171021 12 0.0 0.0 0.00 0.20 0.05 91 1008.0
20260506170021 12 18 1.6 4.8 0.00 0.20 0.05 91 1007.8
20260506165118 12 350 0.0 3.2 0.05 0.20 0.05 89 1007.8
20260506164022 13 308 0.0 3.2 0.05 0.20 0.05 91 1007.9
20260506163038 13 303 0.0 1.6 0.05 0.20 0.05 90 1007.9
20260506162023 13 297 0.0 3.2 0.05 0.20 0.05 90 1007.7
20260506161040 13 294 0.0 1.6 0.05 0.20 0.05 90 1007.7
20260506160024 13 305 0.0 1.6 0.05 0.20 0.05 88 1007.7
20260506155040 14 299 0.0 1.6 0.00 0.15 0.00 86 1007.7
20260506154044 14 298 1.6 8.0 0.00 0.15 0.00 84 1007.8
20260506153041 15 289 3.2 9.7 0.00 0.15 0.00 79 1007.7
20260506152105 14 297 3.2 11.3 0.00 0.15 0.00 80 1007.7
20260506151042 15 289 3.2 9.7 0.00 0.15 0.00 80 1007.7
20260506150026 16 276 6.4 16.1 0.00 0.15 0.00 71 1007.4
20260506145043 16 307 3.2 11.3 0.00 0.15 0.00 67 1007.0
20260506144027 16 285 3.2 9.7 0.00 0.15 0.00 67 1007.0
20260506143043 16 300 4.8 8.0 0.00 0.15 0.00 68 1007.0
20260506142048 16 288 3.2 9.7 0.00 0.15 0.00 69 1006.9
20260506141044 16 261 3.2 11.3 0.00 0.18 0.00 69 1007.0
20260506140029 16 266 3.2 9.7 0.00 0.20 0.00 67 1006.8
20260506135045 17 276 3.2 11.3 0.00 0.20 0.00 65 1006.9
20260506134030 18 275 3.2 11.3 0.00 0.23 0.00 63 1006.8
20260506133046 18 250 4.8 9.7 0.00 0.23 0.00 63 1006.9
20260506132030 17 259 3.2 8.0 0.00 0.23 0.00 65 1007.0